Flag for U.S.A. Weather past 2 weeks in Augusta, Georgia, U.S.A.

Now
87 °F

Scattered clouds.


Feels Like: 90 °F
Forecast: 68 / 86 °F
Wind: 12 mph from Northeast

Location: Daniel Field

Current Time: Aug 28, 2015 at 3:36:51 PM

Latest Report: Aug 28, 2015 at 2:53 PM


Visibility: 10 mi

Pressure: 30.12 "Hg

Humidity: 51%

Dew point: 67 °F

Location of AugustaLocation

Historic Weather in Augusta — Graph

°F

Augusta temperature yesterday

Maximum temperature yesterday: 89 °F (at 4:53 PM)
Minimum temperature yesterday: 72 °F (at 7:53 AM)
Average temperature yesterday: 80 °F

Past Weeks' High & Low Weather Summary

 TemperatureHumidityPressure
High93 °F (Aug 15, 4:53 PM)97% (Aug 19, 6:53 AM)30.18 "Hg (Aug 19, 6:53 AM)
Low69 °F (Aug 26, 6:53 AM)30% (Aug 14, 1:53 PM)29.83 "Hg (Aug 25, 4:53 PM)
Average81 °F69%30.02 "Hg
* Reported Aug 13 1:53 PM — Aug 28 1:53 PM, Augusta, Weather by CustomWeather, © 2015

Note: Actual official high and low records may vary slightly from our data, if they occured in-between our weather recording intervals... More about our weather records

Advertising

Augusta weather history for previous 24 hours

 ConditionsComfort  
Time TempWeatherWind HumidityBarometerVisibility
1:53 PM
Fri, Aug 28
83 °FPassing clouds.7 mph59%30.13 "Hg10 mi
12:53 PM80 °FMostly cloudy.6 mph67%30.16 "Hg10 mi
11:53 AM80 °FOvercast.9 mph67%30.16 "Hg10 mi
11:00 AM77 °FPassing clouds.8 mph71%30.17 "Hg10 mi
9:53 AM75 °FOvercast.7 mph76%30.14 "Hg10 mi
8:53 AM72 °FPassing clouds.7 mph81%30.12 "Hg10 mi
7:53 AM71 °FPassing clouds.7 mph87%30.10 "Hg10 mi
6:53 AM71 °FLow clouds.6 mph87%30.08 "Hg10 mi
5:53 AM71 °FPassing clouds.6 mph90%30.06 "Hg10 mi
4:53 AM72 °FClear.7 mph87%30.05 "Hg10 mi
3:53 AM73 °FClear.6 mph88%30.05 "Hg10 mi
2:53 AM74 °FClear.9 mph85%30.06 "Hg10 mi
1:53 AM76 °FPassing clouds.8 mph82%30.06 "Hg10 mi
12:53 AM78 °FPassing clouds.8 mph76%30.07 "Hg10 mi
11:53 PM
Thu, Aug 27
78 °FPassing clouds.7 mph76%30.06 "Hg10 mi
10:53 PM79 °FClear.6 mph74%30.04 "Hg10 mi
9:53 PM81 °FPassing clouds.5 mph67%30.03 "Hg10 mi
8:53 PM83 °FPassing clouds.6 mph57%30.00 "Hg10 mi
7:53 PM84 °FSunny.6 mph51%29.98 "Hg10 mi
6:53 PM87 °FSunny.10 mph45%29.97 "Hg10 mi
5:53 PM88 °FPassing clouds.8 mph45%29.96 "Hg10 mi
4:53 PM89 °FSunny.N/A45%29.97 "Hg10 mi
3:53 PM87 °FSunny.10 mph50%29.97 "Hg10 mi
Weather by CustomWeather, © 2015

See weather overviewHow to use our weather pages